Location: Hylvaty SDH
(49.9612°N, 16.4057°E)
Time: 20:42:37
(UTC+01:00)

Vanguard 1 Rocket - Pass Details

Date: 05 October 2020
Orbit: 656 x 4221 km, 34.3° (Epoch: 30 October)

Event Time Altitude Azimuth Distance (km) Brightness Sun altitude
Rises 19:35:05 0° 254° (WSW) 5,017 12.6 -12.3°
Reaches altitude 10° 19:37:57 10° 248° (WSW) 4,393 11.9 -12.8°
Maximum altitude 19:50:05 45° 181° (S) 3,661 10.3 -14.7°
Enters shadow 20:07:11 16° 123° (ESE) 6,520 11.1 -17.4°
Drops below altitude 10° 20:10:46 10° 119° (ESE) 7,209 - -18.0°
Sets 20:17:18 0° 114° (ESE) 8,422 - -19.0°
